Tracking 23757 objects as of 26-Oct-2021
HD Live streaming from Space Station
objects crossing your sky now

IRIDIUM 33 DEB

Track IRIDIUM 33 DEB now!
10-day predictions


NORAD ID: 38019
Int'l Code: 1997-051YF
Perigee: 662.0 km
Apogee: 775.4 km
Inclination: 86.4 °
Period: 99.0 minutes
Semi major axis: 7089 km
RCS: 0.0174 m2 (small)
Launch date: September 14, 1997
Source: United States (US)
Launch site: TYURATAM MISSILE AND SPACE COMPLEX (TTMTR)

Note: This is SATELLITE DEBRIS
aabbcc
Your satellite tracking list
Your tracking list is empty




NASA's NSSDC Master Catalog

Two Line Element Set (TLE):
1 38019U 97051YF  21295.47311045  .00005787  00000-0  13016-2 0  9997
2 38019  86.3949 359.1616 0080000 168.2528 192.0571 14.54329752611222
Source of the keplerian elements: AFSPC